TimeCDT,TemperatureF,Dew PointF,Humidity,Sea Level PressureIn,VisibilityMPH,Wind Direction,Wind SpeedMPH,Gust SpeedMPH,PrecipitationIn,Events,Conditions,WindDirDegrees,DateUTC
12:15 AM,68.0,68.0,100,30.00,10.0,SSE,11.5,18.4,N/A,,Scattered Clouds,160,2013-10-30 05:15:00
12:35 AM,68.0,68.0,100,30.00,10.0,SSE,12.7,18.4,N/A,,Scattered Clouds,160,2013-10-30 05:35:00
12:55 AM,68.0,68.0,100,30.00,10.0,South,13.8,-,N/A,,Scattered Clouds,170,2013-10-30 05:55:00
1:15 AM,68.0,68.0,100,29.99,10.0,South,13.8,20.7,N/A,,Scattered Clouds,170,2013-10-30 06:15:00
1:35 AM,68.0,68.0,100,29.99,10.0,South,18.4,-,N/A,,Scattered Clouds,170,2013-10-30 06:35:00
1:55 AM,68.0,68.0,100,29.99,10.0,South,12.7,18.4,N/A,,Scattered Clouds,180,2013-10-30 06:55:00
2:15 AM,68.0,68.0,100,29.99,10.0,South,13.8,19.6,N/A,,Mostly Cloudy,180,2013-10-30 07:15:00
2:35 AM,68.0,68.0,100,29.99,10.0,South,11.5,-,N/A,,Overcast,180,2013-10-30 07:35:00
2:55 AM,68.0,68.0,100,29.99,10.0,South,15.0,18.4,N/A,,Overcast,190,2013-10-30 07:55:00
3:15 AM,68.0,68.0,100,29.99,10.0,South,10.4,18.4,N/A,,Overcast,170,2013-10-30 08:15:00
3:35 AM,68.0,68.0,100,29.98,10.0,South,13.8,18.4,N/A,,Overcast,170,2013-10-30 08:35:00
3:55 AM,68.0,68.0,100,29.98,10.0,South,11.5,-,N/A,,Overcast,180,2013-10-30 08:55:00
4:15 AM,68.0,68.0,100,29.98,10.0,SSE,12.7,-,N/A,,Overcast,160,2013-10-30 09:15:00
4:35 AM,68.0,68.0,100,29.98,10.0,South,11.5,17.3,N/A,,Overcast,180,2013-10-30 09:35:00
4:55 AM,68.0,68.0,100,29.98,10.0,South,12.7,19.6,N/A,,Overcast,180,2013-10-30 09:55:00
5:15 AM,68.0,66.2,94,29.98,10.0,South,11.5,20.7,N/A,,Overcast,180,2013-10-30 10:15:00
5:35 AM,68.0,66.2,94,29.97,10.0,South,10.4,18.4,N/A,,Overcast,180,2013-10-30 10:35:00
5:55 AM,68.0,66.2,94,29.97,10.0,SSE,11.5,-,N/A,,Overcast,160,2013-10-30 10:55:00
6:15 AM,68.0,66.2,94,29.98,10.0,South,10.4,17.3,N/A,,Overcast,170,2013-10-30 11:15:00
6:35 AM,68.0,66.2,94,29.97,10.0,SSE,11.5,17.3,N/A,,Overcast,160,2013-10-30 11:35:00
6:55 AM,68.0,66.2,94,29.97,10.0,South,11.5,16.1,N/A,Thunderstorm,Overcast,180,2013-10-30 11:55:00
7:15 AM,68.0,66.2,94,29.96,10.0,South,10.4,-,N/A,Thunderstorm,Overcast,170,2013-10-30 12:15:00
7:35 AM,68.0,66.2,94,29.97,10.0,South,12.7,16.1,N/A,Thunderstorm,Overcast,170,2013-10-30 12:35:00
7:55 AM,68.0,68.0,100,29.95,10.0,South,11.5,-,N/A,Thunderstorm,Overcast,170,2013-10-30 12:55:00
8:15 AM,68.0,68.0,100,29.95,10.0,South,13.8,-,N/A,Thunderstorm,Thunderstorm,170,2013-10-30 13:15:00
8:35 AM,68.0,68.0,100,29.95,10.0,SSE,15.0,19.6,N/A,Thunderstorm,Overcast,160,2013-10-30 13:35:00
8:55 AM,68.0,68.0,100,29.96,10.0,South,9.2,-,N/A,Thunderstorm,Overcast,170,2013-10-30 13:55:00
9:15 AM,68.0,68.0,100,29.97,10.0,SSE,6.9,-,N/A,Thunderstorm,Overcast,160,2013-10-30 14:15:00
9:35 AM,68.0,68.0,100,29.98,10.0,South,8.1,-,N/A,Thunderstorm,Overcast,170,2013-10-30 14:35:00
9:55 AM,68.0,68.0,100,29.98,10.0,SSE,10.4,-,N/A,,Overcast,150,2013-10-30 14:55:00
10:15 AM,68.0,68.0,100,29.97,7.0,SSE,11.5,20.7,N/A,Thunderstorm,Overcast,160,2013-10-30 15:15:00
10:35 AM,68.0,68.0,100,29.96,10.0,SSE,13.8,18.4,N/A,Thunderstorm,Overcast,160,2013-10-30 15:35:00
10:55 AM,68.0,68.0,100,29.95,10.0,SSE,12.7,-,N/A,Thunderstorm,Overcast,160,2013-10-30 15:55:00
11:15 AM,68.0,68.0,100,29.94,10.0,SSE,13.8,-,N/A,Rain-Thunderstorm,Rain,160,2013-10-30 16:15:00
11:35 AM,68.0,68.0,100,29.95,7.0,South,21.9,27.6,N/A,,Overcast,170,2013-10-30 16:35:00
11:55 AM,69.8,68.0,94,29.93,10.0,South,16.1,25.3,N/A,,Overcast,170,2013-10-30 16:55:00
12:15 PM,68.0,68.0,100,29.94,10.0,South,27.6,31.1,N/A,Rain,Rain,170,2013-10-30 17:15:00
12:35 PM,68.0,66.2,94,29.93,10.0,SSE,20.7,29.9,N/A,,Overcast,160,2013-10-30 17:35:00
12:55 PM,68.0,68.0,100,29.92,10.0,SSE,18.4,27.6,0.01,Rain,Light Rain,160,2013-10-30 17:55:00
1:15 PM,66.2,66.2,100,29.90,10.0,SSE,17.3,-,0.01,Rain,Light Rain,160,2013-10-30 18:15:00
1:35 PM,66.2,66.2,100,29.90,7.0,South,16.1,-,0.05,Rain,Rain,170,2013-10-30 18:35:00
1:55 PM,66.2,66.2,100,29.90,10.0,South,13.8,19.6,0.06,Rain,Light Rain,170,2013-10-30 18:55:00
2:15 PM,66.2,66.2,100,29.89,10.0,South,20.7,28.8,N/A,Rain,Light Rain,170,2013-10-30 19:15:00
2:35 PM,64.4,64.4,100,29.89,7.0,South,17.3,23.0,N/A,Rain,Rain,170,2013-10-30 19:35:00
2:55 PM,66.2,66.2,100,29.88,10.0,South,18.4,25.3,N/A,,Overcast,180,2013-10-30 19:55:00
3:15 PM,66.2,66.2,100,29.87,10.0,South,19.6,24.2,N/A,,Overcast,170,2013-10-30 20:15:00
3:35 PM,64.4,64.4,100,29.87,7.0,SSE,13.8,24.2,N/A,,Overcast,160,2013-10-30 20:35:00
3:55 PM,64.4,64.4,100,29.87,3.0,South,20.7,32.2,N/A,,Drizzle,170,2013-10-30 20:55:00
4:15 PM,64.4,64.4,100,29.87,3.0,SSE,21.9,26.5,0.01,,Drizzle,160,2013-10-30 21:15:00
4:35 PM,62.6,62.6,100,29.86,7.0,SSE,20.7,26.5,0.01,,Overcast,160,2013-10-30 21:35:00
4:55 PM,62.6,62.6,100,29.86,7.0,SSE,17.3,28.8,0.01,,Overcast,160,2013-10-30 21:55:00
5:15 PM,62.6,62.6,100,29.86,10.0,SSE,16.1,24.2,N/A,,Overcast,160,2013-10-30 22:15:00
5:35 PM,62.6,62.6,100,29.85,10.0,SSE,17.3,23.0,N/A,,Overcast,160,2013-10-30 22:35:00
5:55 PM,62.6,62.6,100,29.85,10.0,SSE,13.8,18.4,N/A,,Overcast,160,2013-10-30 22:55:00
6:15 PM,62.6,62.6,100,29.86,10.0,SSE,12.7,21.9,N/A,,Overcast,150,2013-10-30 23:15:00
7:55 PM,60.8,60.8,100,29.86,10.0,SSE,19.6,28.8,N/A,,Overcast,160,2013-10-31 00:55:00
8:15 PM,62.6,62.6,100,29.86,10.0,SSE,18.4,23.0,N/A,,Overcast,150,2013-10-31 01:15:00
8:35 PM,60.8,60.8,100,29.85,10.0,SSE,20.7,27.6,N/A,,Overcast,160,2013-10-31 01:35:00
8:55 PM,60.8,60.8,100,29.84,10.0,SSE,17.3,24.2,N/A,,Overcast,160,2013-10-31 01:55:00
9:15 PM,60.8,60.8,100,29.84,10.0,SSE,18.4,24.2,N/A,,Overcast,150,2013-10-31 02:15:00
9:35 PM,60.8,60.8,100,29.85,10.0,South,12.7,23.0,N/A,,Overcast,170,2013-10-31 02:35:00
9:55 PM,60.8,60.8,100,29.84,10.0,SSE,18.4,23.0,N/A,,Overcast,150,2013-10-31 02:55:00
10:15 PM,60.8,60.8,100,29.83,10.0,SSE,16.1,20.7,N/A,Rain,Light Rain,160,2013-10-31 03:15:00
10:35 PM,60.8,60.8,100,29.83,10.0,SSE,13.8,23.0,N/A,,Overcast,160,2013-10-31 03:35:00
10:55 PM,60.8,60.8,100,29.82,10.0,SSE,15.0,20.7,N/A,Rain,Light Rain,150,2013-10-31 03:55:00
11:15 PM,60.8,60.8,100,29.81,10.0,SSE,16.1,24.2,N/A,,Overcast,160,2013-10-31 04:15:00
11:35 PM,62.6,62.6,100,29.78,10.0,SSE,18.4,25.3,N/A,,Overcast,150,2013-10-31 04:35:00
11:55 PM,62.6,62.6,100,29.78,10.0,SSE,13.8,21.9,N/A,,Overcast,160,2013-10-31 04:55:00